Location: Estes Par
(40.3770°N, 105.5210°W)
Time: 06:47:58
(UTC-07:00)

N. Korean satellite - Pass Details

Date: 13 October 2017
Orbit: 461 x 513 km, 97.2° (Epoch: 14 December)

Event Time Altitude Azimuth Distance (km) Brightness Sun altitude
Rises 19:22:38 0° 179° (S) 2,546 10.2 -11.8°
Reaches altitude 10° 19:24:46 10° 185° (S) 1,661 9.3 -12.2°
Maximum altitude 19:28:13 48° 260° (W) 631 7.6 -12.9°
Drops below altitude 10° 19:31:40 10° 337° (NNW) 1,646 9.6 -13.5°
Sets 19:33:45 0° 343° (NNW) 2,520 10.4 -13.9°
